Location: Niedergestelen
(46.3129°N, 7.7822°E)
Time: 06:40:41
(UTC+00:00)

CZ-2C R/B - Pass Details

Date: 01 December 2020
Orbit: 705 x 907 km, 98.1° (Epoch: 18 January)

Event Time Altitude Azimuth Distance (km) Brightness Sun altitude
Rises 17:14:07 0° 142° (SE) 3,218 6.0 -15.0°
Reaches altitude 10° 17:16:35 10° 134° (SE) 2,268 5.2 -15.4°
Maximum altitude 17:21:07 37° 68° (ENE) 1,133 3.4 -16.2°
Drops below altitude 10° 17:25:30 10° 2° (N) 2,205 5.2 -16.9°
Sets 17:27:52 0° 354° (N) 3,118 6.1 -17.3°
